Total_Precipitation_Accumulation
0.60 0.54 0.44 0.44 0.50 0.55 0.65 0.72 0.64 0.54 0.59 0.53 0.27 0.11 0.09 0.10 0.10 0.06 0.04 0.04 0.03 0.03 0.03 0.04 0.06 0.09 0.16 0.24 0.33 0.41 0.44 0.41 0.36 0.27 0.20 0.14 0.11 0.09
0.52 0.47 0.42 0.43 0.48 0.52 0.59 0.68 0.76 0.75 0.67 0.64 0.48 0.24 0.17 0.15 0.12 0.08 0.06 0.04 0.03 0.02 0.02 0.02 0.04 0.06 0.11 0.17 0.24 0.30 0.34 0.33 0.31 0.28 0.23 0.17 0.13 0.10
0.34 0.34 0.36 0.41 0.45 0.48 0.52 0.54 0.70 0.85 0.81 0.84 0.74 0.56 0.39 0.28 0.21 0.16 0.10 0.05 0.04 0.03 0.02 0.02 0.03 0.05 0.09 0.13 0.20 0.26 0.30 0.31 0.29 0.27 0.23 0.18 0.13 0.09
0.28 0.37 0.42 0.50 0.51 0.46 0.48 0.54 0.70 0.87 0.95 1.10 1.19 0.94 0.67 0.45 0.37 0.25 0.14 0.08 0.06 0.05 0.03 0.02 0.02 0.03 0.06 0.10 0.17 0.25 0.30 0.31 0.30 0.27 0.23 0.17 0.12 0.10
0.24 0.36 0.41 0.42 0.44 0.45 0.50 0.55 0.62 0.73 0.84 0.98 1.16 1.00 0.82 0.60 0.58 0.45 0.29 0.24 0.13 0.10 0.06 0.03 0.02 0.02 0.04 0.08 0.14 0.21 0.27 0.31 0.29 0.27 0.23 0.18 0.13 0.09
0.16 0.23 0.28 0.28 0.33 0.37 0.39 0.47 0.54 0.56 0.61 0.71 0.87 0.95 0.99 0.93 0.87 0.75 0.63 0.50 0.37 0.22 0.18 0.08 0.05 0.03 0.04 0.06 0.10 0.17 0.23 0.28 0.28 0.27 0.23 0.17 0.13 0.09
0.10 0.11 0.10 0.12 0.15 0.19 0.24 0.33 0.41 0.49 0.55 0.63 0.77 0.91 1.01 1.06 0.99 0.98 0.87 0.78 0.62 0.53 0.53 0.35 0.25 0.18 0.11 0.08 0.09 0.14 0.20 0.24 0.25 0.25 0.22 0.17 0.12 0.07
0.05 0.05 0.04 0.04 0.05 0.08 0.10 0.13 0.19 0.29 0.44 0.61 0.75 0.92 0.98 0.96 1.09 1.07 1.03 0.99 0.91 0.82 0.83 0.80 0.70 0.57 0.40 0.23 0.17 0.14 0.14 0.16 0.18 0.17 0.16 0.13 0.09 0.06
0.01 0.02 0.01 0.00 0.01 0.03 0.06 0.11 0.11 0.11 0.16 0.38 0.55 0.63 0.64 0.63 0.83 1.03 1.01 1.00 1.07 1.01 0.99 1.05 1.01 0.90 0.65 0.48 0.33 0.19 0.16 0.15 0.14 0.12 0.10 0.08 0.07 0.06
0.00 0.00 0.00 0.00 0.00 0.01 0.03 0.08 0.05 0.04 0.06 0.14 0.18 0.20 0.25 0.34 0.49 0.75 0.95 0.93 0.99 1.02 1.05 1.21 1.18 1.13 0.94 0.71 0.49 0.28 0.19 0.17 0.17 0.14 0.11 0.10 0.08 0.06
0.00 0.00 0.00 0.00 0.00 0.00 0.04 0.07 0.04 0.01 0.01 0.02 0.04 0.06 0.10 0.13 0.21 0.36 0.58 0.87 1.13 1.16 1.06 1.22 1.29 1.31 1.33 1.06 0.76 0.52 0.33 0.24 0.19 0.16 0.14 0.12 0.09 0.07
0.00 0.00 0.00 0.00 0.00 0.00 0.02 0.04 0.03 0.02 0.02 0.02 0.02 0.02 0.04 0.05 0.07 0.14 0.26 0.49 0.79 0.96 0.97 1.10 1.32 1.54 1.66 1.38 0.98 0.71 0.54 0.43 0.33 0.22 0.15 0.11 0.09 0.07
0.00 0.00 0.00 0.00 0.00 0.00 0.00 0.00 0.00 0.00 0.01 0.02 0.03 0.03 0.03 0.03 0.03 0.04 0.07 0.16 0.32 0.44 0.54 0.72 0.93 1.19 1.51 1.58 1.40 1.07 0.80 0.59 0.44 0.34 0.24 0.16 0.13 0.12
0.01 0.00 0.00 0.00 0.00 0.00 0.00 0.00 0.00 0.00 0.01 0.02 0.02 0.02 0.03 0.02 0.02 0.02 0.04 0.06 0.12 0.19 0.26 0.39 0.55 0.74 0.91 1.06 1.15 1.18 1.13 0.95 0.71 0.51 0.37 0.30 0.24 0.21
0.01 0.01 0.01 0.01 0.00 0.00 0.00 0.00 0.00 0.00 0.01 0.01 0.02 0.02 0.02 0.01 0.02 0.03 0.04 0.05 0.06 0.07 0.09 0.16 0.26 0.39 0.51 0.66 0.78 0.83 0.86 0.86 0.79 0.68 0.58 0.48 0.37 0.30
0.02 0.01 0.01 0.01 0.01 0.01 0.01 0.01 0.00 0.01 0.01 0.01 0.03 0.03 0.03 0.02 0.02 0.03 0.04 0.06 0.07 0.07 0.06 0.08 0.13 0.22 0.31 0.40 0.47 0.56 0.65 0.71 0.76 0.78 0.70 0.63 0.51 0.41
0.03 0.02 0.02 0.02 0.02 0.02 0.02 0.01 0.01 0.01 0.01 0.02 0.02 0.03 0.04 0.04 0.04 0.04 0.04 0.07 0.09 0.10 0.08 0.07 0.08 0.12 0.13 0.18 0.29 0.39 0.47 0.54 0.62 0.71 0.75 0.69 0.55 0.44
0.05 0.06 0.06 0.05 0.04 0.03 0.03 0.02 0.03 0.02 0.02 0.03 0.04 0.04 0.04 0.04 0.04 0.04 0.04 0.05 0.07 0.09 0.10 0.08 0.08 0.11 0.14 0.11 0.12 0.19 0.28 0.37 0.42 0.46 0.52 0.56 0.51 0.44
0.06 0.09 0.10 0.08 0.06 0.04 0.03 0.03 0.04 0.04 0.04 0.04 0.06 0.07 0.06 0.06 0.07 0.06 0.06 0.07 0.08 0.09 0.11 0.10 0.09 0.10 0.15 0.18 0.12 0.09 0.13 0.20 0.25 0.26 0.30 0.36 0.38 0.31
0.04 0.08 0.11 0.11 0.08 0.06 0.04 0.03 0.03 0.03 0.03 0.04 0.06 0.06 0.06 0.07 0.08 0.08 0.06 0.06 0.08 0.11 0.15 0.15 0.12 0.10 0.11 0.15 0.13 0.09 0.06 0.10 0.16 0.20 0.20 0.20 0.19 0.16
0.02 0.03 0.05 0.06 0.07 0.07 0.06 0.05 0.04 0.04 0.03 0.03 0.04 0.06 0.06 0.08 0.09 0.11 0.10 0.09 0.08 0.09 0.14 0.18 0.16 0.12 0.12 0.15 0.17 0.15 0.10 0.06 0.08 0.11 0.14 0.15 0.14 0.11
0.01 0.01 0.02 0.02 0.03 0.04 0.05 0.04 0.04 0.04 0.04 0.04 0.04 0.05 0.06 0.08 0.10 0.11 0.12 0.12 0.11 0.11 0.13 0.15 0.15 0.15 0.16 0.19 0.19 0.18 0.15 0.12 0.08 0.04 0.05 0.06 0.08 0.08
0.00 0.00 0.01 0.01 0.01 0.02 0.02 0.03 0.03 0.03 0.03 0.03 0.03 0.04 0.05 0.06 0.06 0.08 0.09 0.10 0.11 0.11 0.12 0.14 0.16 0.17 0.19 0.22 0.25 0.24 0.19 0.16 0.14 0.11 0.07 0.04 0.02 0.02